STARLINK-3873, 52467

Orbit data source: Space-Track

STARLINK-3873, 52467 is a payload satellite owned by SpaceX/Seattle (US) in LEO that was launched on Fri, 06 May 2022 UTC via an FALCON 9 launch vehicle from the Air Force Eastern Test Range (AFETR). Payload-class satellites include a variety of spacecraft equipped with specific instruments for various scientific and technological missions. These include communications satellites like Starlink; space stations such as the ISS; scientific satellites like the Hubble; Earth observation satellites from companies like Planet Labs, Umbra, and HawkEye 360; GPS; miniature CubeSats for education and research; and military/defense satellites.

Loading next visibility...
Identifier
52467, 2022-049S
Orbit
LEO
Country
Flag of USUS
Related business
Manufacturer
SpaceX/Seattle
Mission
Operational Commercial Communications
Bus & Motor
STARLINK, Unknown motor
Mass
297 kg wet, ~220 kg dry
Launch date (UTC)
2022-05-06 (4 years ago)
Launch vehicle
FALCON 9
Launch site
Air Force Eastern Test Range (AFETR)
Object type
Payload
Rocket body
Debris
Shape & HBR
Box + 1 Pan, 10.1 m
Radar Cross Section
13.562 m², Large (>1 m²)

Expand to show TLE details & history
Last TLE update: 1 day ago

TLE from 1 day ago
0 STARLINK-3873
1 52467U 22049S   26193.39506416 -.00000033  00000-0  16037-4 0  9994
2 52467  53.1585 219.0474 0000938  77.4758 282.6338 15.08833057231073
Epoch: 2026-07-12T09:28Z
TLE epoch observation values (Epoch: 2026-07-12T09:28:53.543Z)
Latitude
-0.00004°
Longitude
146.52972°
Altitude
540.514 km
Speed
7.593 km/s
True Right ascension
14h 36m 11s
True Declination
0° 00' 00"
Sunlit
Object was in daylight at epoch
Visualization orbit readout
Latitude
Unknown
Longitude
Unknown
Altitude
Unknown
Speed
Unknown
Apparent Right ascension
Unknown
Apparent Declination
Unknown
Sunlit
N/A
Visualization observer readout
Local Sidereal Time
22:45:12
Azimuth
Unknown
Elevation
Unknown
Doppler factor
Unknown
Orbital elements
Apogee altitude
540.668 km
Perigee altitude
539.37 km
Semi-major axis
6,918.156 km
Eccentricity
0.00009
Inclination
53.1585°
RAAN
219.0474°
Arg. of periapsis
77.4758°
True anomaly
282.62331°
Mean anomaly
282.6338°
Eccentric anomaly
282.62856°
Mean motion
3.77188 °/min
Orbital period
95.44 mins
BSTAR
0.000016037
Loading maneuver chart data...
Computing Atmospheric mass density...
Loading historical data...
Loading historical data...
Loading historical data...
Loading historical data...
Loading historical data...
Loading historical data...
Loading historical data...

Documentation

Showing up to 5 results
|